Volver al catálogo

MISR-D-1

ActivoCienciaSSO
NORAD 69908·PAYLOAD·🇺🇸 United States

Lanzado Jul 7, 2026 desde Vandenberg Space Force Base

Loading…

Próximos Pases (próximas 24 horas)

TLE

ActualizadoSource: Space-Track

Época: Sep 13, 2026, 16:52 UTC

1 69908U 26156AR  26256.70317935  .00001095  00000-0  11456-3 0  9993
2 69908  97.7440 155.9743 0004474 281.3030  78.7686 14.91638809 10197

Sigue MISR-D-1 en tiempo real con AllMySat

Download on the App Store